Regional Weather Roundup
Issued by NWS

Home | Current Version | Previous Version | Text Only | Print | Product List | Glossary On
Versions: 1 2 3 4 5 6 7 8 9 10 11 12 13 14 15 16 17 18 19 20 21 22 23 24 25 26 27 28 29 30 31 32 33 34 35 36 37 38 39 40 41 42 43 44 45 46 47 48 49 50
000
ASUS43 KLMK 281510
RWRKY
KENTUCKY REGIONAL WEATHER ROUNDUP
NATIONAL WEATHER SERVICE LOUISVILLE KY
1100 AM EDT SAT MAY 28 2016

NOTE "FAIR" INDICATES FEW OR NO CLOUDS BELOW 12,000 FEET
WITH NO SIGNIFICANT WEATHER AND/OR OBSTRUCTIONS TO VISIBILITY.

KYZ001>023-026-027-061>063-070>075-281600-
WESTERN AND SOUTH CENTRAL KENTUCKY

CITY           SKY/WX    TMP DP  RH WIND       PRES   REMARKS
PADUCAH        CLOUDY    78  66  66 S12       29.99F
HENDERSON      CLOUDY    77  64  65 S12       30.02S
OWENSBORO      CLOUDY    81  69  66 S14       30.05S
HOPKINSVILLE   SUNNY     80  66  62 S13G18    30.05F
BOWLING GREEN  PTSUNNY   79  66  64 S12       30.09S
GLASGOW        MOSUNNY   77  63  62 S9G17     30.11S
$$

KYZ024-025-028>034-038-045-046-053-281600-
NORTH CENTRAL KENTUCKY

CITY           SKY/WX    TMP DP  RH WIND       PRES   REMARKS
LOUISVILLE/SDF CLOUDY    77  66  68 S10       30.08S
LOUISVILLE/LOU CLOUDY    75  66  73 S8        30.09S
FORT KNOX      CLOUDY    78  66  68 S14       30.08S
$$

KYZ035>037-039>044-047>052-055>060-089>105-281600-
NORTHEAST KENTUCKY

CITY           SKY/WX    TMP DP  RH WIND       PRES   REMARKS
LEXINGTON      MOSUNNY   79  65  62 S14       30.14R
COVINGTON      PTSUNNY   78  68  71 S9G16     30.11R
FRANKFORT      CLOUDY    76  66  71 S9        30.11R
$$

KYZ054-064>069-076>088-106>120-281600-
SOUTHEAST KENTUCKY

CITY           SKY/WX    TMP DP  RH WIND       PRES   REMARKS
JACKSON        MOSUNNY   76  65  68 VRB5      30.18R
LONDON         PTSUNNY   78  61  55 SW10      30.17R
SOMERSET       PTSUNNY   75  63  64 S5        30.16S
MIDDLESBORO    CLOUDY    74  67  77 CALM      30.19S
MONTICELLO     CLOUDY    77  65  66 E6        30.17R
$$





USA.gov is the U.S. government's official web portal to all federal, state and local government web resources and services.